RH
25 25 26 27 30 31 30 30 30 30 30 29 28 27 25 22 19 16 14 12 12 12 14 13 16 16 17 16 19 17 22 23 24 26 26 25 23 22 21 18 14 14 12
28 27 27 28 28 28 28 28 29 29 29 29 29 30 30 29 27 24 21 18 16 14 13 13 13 13 14 15 15 17 16 17 22 23 22 23 22 19 15 13 11 9 8
54 53 56 56 50 38 38 40 43 46 49 50 41 32 30 31 32 31 29 27 24 21 19 16 15 13 13 12 12 12 13 14 13 11 11 12 11 11 11 11 12 11 11
92 85 74 67 63 61 65 70 72 73 71 66 59 52 39 33 31 32 33 32 31 30 28 26 23 21 20 19 18 17 17 17 16 17 17 17 17 17 16 16 15 16 15
82 90 95 94 84 80 87 90 92 92 91 89 84 73 61 50 42 37 33 32 33 33 32 30 29 28 27 25 23 24 24 24 23 23 23 23 23 23 23 23 22 22 22
39 58 73 83 83 87 90 90 86 83 82 82 82 79 70 63 60 54 47 39 34 34 34 33 32 32 32 32 31 30 28 27 29 29 29 28 27 27 27 27 23 21 21
28 40 61 70 69 72 74 75 78 82 83 81 80 80 77 70 63 59 57 53 44 36 34 34 33 33 33 33 34 34 33 33 31 31 32 33 31 30 29 27 23 22 20
21 27 43 68 76 74 72 69 67 65 65 69 77 78 76 76 74 67 60 58 54 46 37 33 33 33 33 33 35 36 37 36 35 36 34 30 28 22 22 21 20 20 20
22 22 27 38 76 85 83 79 75 71 66 60 57 57 64 71 74 76 73 64 59 56 49 38 32 32 32 32 34 36 38 39 38 35 31 26 22 18 18 21 22 24 25
28 29 30 30 30 34 51 68 74 72 68 66 63 59 55 52 60 67 74 78 70 62 58 50 37 31 31 30 32 35 38 40 41 40 34 30 23 16 14 16 20 20 22
34 37 39 40 38 38 37 38 38 40 42 46 50 57 59 56 56 58 67 74 77 74 68 60 45 31 31 31 32 32 38 44 44 39 29 22 16 13 12 12 12 11 11
39 41 44 46 47 46 46 46 47 46 43 41 40 36 38 46 56 57 61 68 73 78 78 68 58 33 28 31 32 31 38 46 41 29 21 17 14 12 11 11 10 10 9
42 46 50 52 52 54 53 55 54 56 53 50 49 42 38 42 45 50 54 59 64 100 89 81 72 44 38 38 34 32 37 46 37 28 19 14 12 11 11 11 10 9 8
45 50 56 58 59 58 58 57 56 55 56 56 56 53 51 49 46 49 54 55 59 64 98 100 97 78 56 57 63 52 58 48 30 19 14 11 11 12 12 11 10 10 9
53 56 62 63 62 60 60 58 56 58 63 63 66 75 71 61 56 72 74 64 58 57 83 100 100 100 100 81 71 70 71 60 49 22 12 12 14 14 13 13 13 13 14
57 64 67 66 67 69 65 54 59 65 80 100 100 100 96 92 94 95 100 100 100 93 98 94 100 100 100 88 75 75 84 61 40 15 13 16 19 18 16 16 18 20 19
66 73 75 79 80 74 76 72 60 45 59 62 65 99 100 100 100 100 100 100 100 100 97 90 92 97 96 96 93 89 91 64 29 14 16 21 20 19 24 32 35 35 30
84 86 87 85 78 83 82 73 72 74 66 51 62 74 73 99 100 100 100 100 98 99 96 95 84 80 92 99 100 90 88 64 19 17 24 26 25 40 52 56 55 51 41
94 94 100 88 86 90 88 68 71 78 83 87 78 71 83 88 96 100 99 97 97 96 83 79 88 94 91 95 85 92 77 36 19 27 32 30 47 62 70 72 71 74 61
95 98 99 92 86 97 82 66 67 79 83 86 86 87 82 79 84 84 80 90 96 98 94 79 75 93 96 94 83 88 63 25 24 37 37 45 65 74 79 81 80 77 66
97 100 98 100 100 95 77 66 74 85 86 86 84 91 100 99 98 100 94 96 94 93 95 96 85 88 96 94 95 92 52 25 36 48 45 61 70 79 84 86 88 87 70
100 100 96 97 99 80 71 74 88 98 98 98 94 94 94 94 88 92 92 90 88 90 90 92 96 97 96 95 89 74 30 28 43 56 58 66 74 84 90 89 93 90 68
100 100 100 100 90 80 74 80 94 98 94 96 99 98 94 84 81 84 83 81 80 84 97 92 96 97 96 93 66 34 25 31 42 65 75 78 84 89 81 84 92 84 68
100 100 99 100 85 77 73 68 66 72 83 89 88 89 91 82 82 83 86 85 83 86 96 96 96 98 95 67 50 26 34 51 59 64 74 80 84 75 81 90 95 72 80
97 100 100 100 99 92 74 65 61 59 58 67 84 86 88 87 85 86 90 92 97 96 96 96 97 96 80 70 49 31 36 42 47 61 69 71 84 86 90 95 74 81 96
99 100 100 100 100 93 78 68 59 53 54 58 78 88 90 90 89 90 90 92 96 96 96 97 96 95 79 75 52 38 45 46 48 56 76 92 89 97 94 72 74 96 99
Wind_Speed
3 4 4 4 4 3 3 3 2 2 2 2 1 0 0 0 1 2 3 4 4 5 6 6 7 7 7 9 10 12 12 12 13 15 13 14 15 17 19 21 22 24 24
3 2 2 3 3 3 3 3 2 2 2 1 1 1 1 1 2 1 2 2 3 4 4 4 5 6 6 7 8 9 11 11 11 11 12 14 14 16 18 19 20 21 22
2 2 2 3 3 4 3 3 3 3 3 3 3 3 3 3 3 2 2 3 3 3 3 4 4 5 6 7 7 9 9 9 10 11 12 13 14 15 16 17 19 18 19
1 2 3 3 4 4 4 4 3 3 3 3 4 4 5 5 4 4 4 4 4 4 4 4 4 5 5 6 7 8 8 8 9 9 10 13 14 15 17 19 18 18 18
3 3 4 5 6 7 7 7 7 7 6 6 6 6 7 6 6 6 6 5 5 5 6 6 6 7 7 7 7 8 8 9 9 10 11 12 14 17 19 20 21 22 20
7 7 8 8 9 10 11 11 12 12 12 12 12 12 11 10 10 10 11 10 9 9 9 8 8 8 8 9 10 9 9 10 10 11 12 13 15 17 19 21 22 23 22
9 11 11 12 12 12 13 13 14 15 16 16 17 17 16 15 15 15 16 16 14 13 13 12 11 11 10 10 11 10 10 11 12 13 14 15 17 17 20 21 21 22 24
11 12 14 15 15 15 15 14 15 15 16 16 17 17 18 18 18 18 18 19 20 18 17 15 14 13 12 13 12 12 12 12 13 14 16 16 17 18 20 21 22 24 25
11 13 15 17 18 19 19 18 18 18 17 18 18 18 19 17 18 18 19 20 21 21 20 19 18 16 15 15 15 14 13 14 15 17 18 18 17 17 18 20 20 22 24
12 12 13 16 19 20 21 22 22 23 23 22 21 21 21 20 19 19 20 21 22 22 23 22 20 19 17 16 17 15 15 14 16 17 16 16 16 17 17 18 19 19 20
13 13 12 13 15 16 18 20 21 22 24 24 25 24 24 23 22 21 21 22 23 23 24 23 21 20 19 18 18 17 15 17 16 16 16 16 15 15 15 15 16 18 19
15 13 13 12 13 13 15 15 17 19 20 21 23 25 24 25 26 25 23 23 23 25 25 24 21 21 20 20 20 18 17 18 16 17 16 15 14 13 13 14 15 16 17
15 13 13 12 12 12 13 13 14 16 18 18 20 21 21 21 23 25 27 26 25 22 26 23 22 21 21 20 22 19 17 15 16 16 16 16 15 15 14 14 14 15 16
15 13 13 12 11 12 12 13 14 14 16 18 18 19 19 19 19 19 21 25 27 26 24 25 23 20 22 21 23 19 15 14 13 14 15 15 14 14 14 14 15 15 15
15 13 12 12 11 12 13 13 15 15 16 17 17 18 19 20 16 15 17 18 23 25 25 26 24 24 27 26 23 20 17 15 14 14 13 13 12 12 12 12 13 14 15
15 13 12 12 11 11 13 14 12 15 16 16 17 19 23 22 20 18 18 18 17 19 24 27 29 29 31 29 23 20 19 16 15 14 13 12 11 9 9 9 10 12 14
14 12 11 10 10 11 11 14 18 12 14 16 16 17 17 19 19 19 20 18 20 18 25 25 28 32 32 29 25 23 20 18 16 15 13 11 9 7 6 7 10 13 14
13 11 9 8 9 10 12 14 16 18 18 15 11 14 16 17 19 19 18 19 22 23 25 28 28 27 30 28 25 23 21 18 16 15 12 9 6 4 4 6 10 13 16
14 11 9 9 10 11 12 15 16 16 17 17 15 11 10 13 16 17 16 21 27 24 28 27 29 27 24 24 24 22 20 18 16 15 12 9 6 3 3 7 11 15 17
15 13 11 12 11 11 12 15 16 15 16 16 16 14 13 14 13 14 17 21 29 17 27 25 25 25 22 20 20 19 18 19 18 15 13 11 7 4 5 9 13 15 18
13 13 13 12 11 12 13 15 14 15 15 15 15 14 15 16 18 17 14 14 20 26 15 27 23 22 24 20 17 16 18 18 18 16 14 12 8 5 7 10 12 15 18
11 11 11 10 10 10 11 11 10 11 13 13 14 14 15 16 16 17 17 13 15 17 21 18 24 22 23 23 15 16 18 19 18 17 15 13 9 8 9 10 12 15 17
10 10 8 8 8 7 6 8 9 10 12 13 13 14 16 17 16 16 18 18 16 15 17 19 22 21 21 17 14 15 17 17 16 15 14 13 11 9 10 10 13 14 15
12 12 11 11 8 9 9 9 9 10 12 13 13 14 15 16 16 15 15 16 16 15 14 17 21 23 17 12 13 15 16 17 17 15 13 11 9 9 8 10 12 12 13
11 9 11 13 12 12 13 14 14 14 14 14 14 13 14 14 14 14 13 13 13 14 12 16 22 18 13 11 13 15 16 16 14 14 12 9 8 9 9 10 10 9 12
8 9 10 11 13 16 19 20 20 19 17 14 13 13 13 13 12 11 9 8 7 8 12 20 19 15 14 14 16 16 15 15 14 13 11 10 8 7 7 8 7 9 11
Wind_Direction
185 184 181 179 178 174 176 175 177 172 163 157 160 164 235 275 242 208 200 208 220 233 240 235 242 245 246 241 249 247 249 242 237 240 244 250 258 266 272 279 280 282 284
198 212 217 217 210 207 208 203 197 196 212 217 205 208 227 215 232 245 247 230 217 218 230 245 249 249 250 251 250 255 260 263 258 258 261 268 273 277 280 282 284 285 287
177 210 230 246 247 243 235 228 235 249 261 268 268 262 250 242 240 239 240 249 254 250 243 241 248 257 260 260 261 261 262 267 271 277 287 288 290 291 289 290 290 291 293
198 229 235 239 239 237 235 233 239 250 269 288 287 281 273 271 267 264 264 268 269 267 263 260 254 252 255 261 263 268 272 275 281 289 295 298 302 301 301 300 297 297 296
263 256 253 246 247 248 250 250 252 258 265 274 284 288 281 277 276 276 273 268 265 262 264 269 271 269 268 268 267 272 279 283 288 291 296 300 303 305 305 308 308 306 304
265 260 259 259 256 254 255 258 262 265 267 268 270 272 277 280 276 275 275 271 269 267 268 267 266 268 273 278 282 284 284 284 290 294 296 297 301 304 307 309 311 312 315
269 255 254 258 262 265 266 266 264 263 263 265 266 266 265 266 268 270 271 270 265 264 265 268 271 275 276 272 274 282 288 292 296 293 295 299 300 305 306 307 309 311 308
276 265 253 251 254 258 262 266 267 267 267 265 264 265 265 265 264 263 264 263 265 263 262 262 263 266 271 274 277 281 284 286 285 287 291 293 297 300 299 300 306 307 310
279 267 263 260 257 258 260 262 265 266 266 266 267 267 266 263 263 261 259 259 261 264 264 261 261 263 266 268 272 277 283 285 287 290 291 296 297 294 295 297 304 305 308
282 276 268 266 267 267 266 265 265 266 265 265 264 266 265 264 264 262 260 258 256 257 259 259 259 261 262 265 270 275 279 284 285 286 290 291 291 293 294 295 297 301 305
284 281 277 273 271 271 270 270 270 269 268 267 267 263 263 264 261 262 261 261 259 256 257 259 257 256 259 262 265 270 278 279 284 291 293 295 295 294 293 292 295 299 300
283 283 280 277 277 276 274 274 275 275 273 271 269 267 264 262 262 259 259 261 261 259 257 257 256 253 255 258 263 270 275 284 291 291 290 290 291 291 292 295 297 297 299
279 279 278 279 280 280 280 280 279 279 281 279 276 274 272 266 262 260 257 255 256 256 262 257 252 247 248 252 257 264 271 277 283 285 287 289 291 294 296 297 298 299 301
274 275 274 276 276 279 283 289 287 285 283 284 284 284 282 275 269 266 262 257 253 252 249 256 250 246 245 246 246 256 262 268 275 280 284 287 290 293 298 303 306 309 311
270 271 272 275 276 279 281 286 287 285 287 292 291 290 289 283 278 271 267 262 252 249 248 245 241 234 239 240 247 252 255 266 274 275 275 278 284 291 299 306 312 318 324
265 267 269 273 277 284 290 289 285 289 286 280 281 282 290 291 291 281 273 271 267 254 247 243 239 233 236 244 246 248 255 270 272 269 269 272 280 291 301 314 325 332 335
260 261 265 271 276 286 293 303 305 289 288 286 287 282 275 276 277 274 268 262 260 255 244 252 248 242 241 241 243 247 255 264 260 258 258 260 271 286 309 330 340 342 343
252 256 261 265 279 289 302 308 311 312 310 301 292 286 278 279 279 276 264 260 257 246 246 249 253 252 245 240 243 246 253 257 251 247 244 245 249 267 319 341 347 347 345
245 245 252 272 274 286 299 310 311 308 305 307 309 297 291 288 283 277 267 258 246 272 242 245 248 250 250 238 236 241 245 243 238 232 228 222 219 235 314 340 345 348 345
241 246 259 277 275 279 296 305 307 306 303 302 309 313 304 301 298 293 278 252 239 269 244 245 250 242 239 229 225 230 236 233 227 220 215 209 213 240 306 329 334 338 341
239 242 257 265 265 278 294 301 304 306 307 300 304 308 308 303 298 302 289 269 257 262 265 241 243 241 229 221 218 233 233 227 218 213 209 207 218 254 301 320 328 333 336
233 240 253 252 257 278 295 303 308 313 315 309 302 301 307 307 292 284 276 283 264 264 254 254 241 236 227 218 232 236 227 219 213 210 208 213 228 265 289 307 317 326 332
238 239 243 247 260 273 304 323 313 305 307 314 314 303 300 306 303 291 278 271 266 269 244 243 236 222 214 214 224 220 218 214 211 208 212 224 242 261 279 293 309 319 329
248 245 242 242 255 271 284 298 320 330 321 313 311 307 303 303 298 293 282 273 259 251 249 233 223 204 198 203 211 208 201 198 203 209 216 223 236 254 270 298 307 315 329
238 238 237 241 258 276 287 291 292 300 309 317 312 308 304 303 299 292 287 277 254 247 245 204 189 186 187 198 204 202 200 202 205 206 211 219 236 254 272 293 299 305 323
225 257 256 258 269 283 292 295 294 289 286 293 304 306 304 303 301 294 296 289 244 223 199 193 188 173 186 195 195 197 205 210 207 207 210 222 232 271 286 293 292 311 318